Weather History for KNSE - May, 2013

Change the Weather History Date:

Saturday, May 18, 2013

  Actual Average Record
Temperature  
Mean Temperature 76 °F -  
Max Temperature 86 °F 83 °F 93 °F (1998)
Min Temperature 69 °F 62 °F 44 °F (2011)
Cooling Degree Days 12    
Growing Degree Days 26 (Base 50)    
Moisture  
Dew Point 67 °F    
Average Humidity 75    
Maximum Humidity 90    
Minimum Humidity 56    
Precipitation  
Precipitation 0.00 in - - ()
Sea Level Pressure  
Sea Level Pressure 30.03 in    
Wind  
Wind Speed 7 mph (South)    
Max Wind Speed 16 mph    
Max Gust Speed 21 mph    
Visibility 9 miles    
Events Rain    
Averages and records for this station are not official NWS values.
T = Trace of Precipitation, MM = Missing Value Source: NWS Daily Summary

Daily Weather History Graph

Daily Weather History Graph

Search for Another Location

Airport or City:

Trip Planner

Search our weather history database for the weather conditions in past years. The results will help you decide how hot, cold, wet, or windy it might be!

Date:

Astronomy

May. 18, 2013 Rise Set
Actual Time 5:51 AM CDT 7:38 PM CDT
Civil Twilight 5:24 AM CDT 8:04 PM CDT
Nautical Twilight 4:52 AM CDT 8:36 PM CDT
Astronomical Twilight 4:18 AM CDT 9:10 PM CDT
Moon 1:07 PM CDT (5/18) 1:14 AM CDT (5/18)
Length of Visible Light 14h 40m
Length of Day
13h 46m
First Quarter, 55% of the Moon is Illuminated
May 18
First Quarter
May 24
Full
May 31
Last Quarter
Jun 8
New
Jun 16
First Quarter

Hourly Weather History & Observations

Time (CDT) Temp. Heat Index Dew Point Humidity Pressure Visibility Wind Dir Wind Speed Gust Speed Precip Events Conditions
12:18 AM 71.6 °F - 66.2 °F 83% 30.07 in 10.0 mi South 8.1 mph - N/A   Mostly Cloudy
12:56 AM 72.0 °F - 68.0 °F 87% 30.01 in 10.0 mi South 8.1 mph - N/A   Scattered Clouds
1:12 AM 73.4 °F - 68.0 °F 83% 30.05 in 9.0 mi South 9.2 mph - N/A   Mostly Cloudy
1:40 AM 71.6 °F - 68.0 °F 88% 30.04 in 9.0 mi SSW 6.9 mph - N/A   Scattered Clouds
1:56 AM 71.1 °F - 66.9 °F 87% 30.00 in 8.0 mi SSW 5.8 mph - N/A   Scattered Clouds
2:56 AM 71.1 °F - 66.0 °F 84% 29.99 in 9.0 mi SSW 3.5 mph - N/A   Partly Cloudy
3:29 AM 71.6 °F - 66.2 °F 83% 30.04 in 10.0 mi South 5.8 mph - N/A   Mostly Cloudy
3:43 AM 71.6 °F - 66.2 °F 83% 30.03 in 9.0 mi South 6.9 mph - N/A   Scattered Clouds
3:56 AM 72.0 °F - 66.9 °F 84% 29.99 in 9.0 mi South 5.8 mph - N/A   Mostly Cloudy
4:36 AM 71.6 °F - 66.2 °F 83% 30.04 in 9.0 mi SSW 4.6 mph - N/A   Scattered Clouds
4:56 AM 70.0 °F - 66.0 °F 87% 30.00 in 9.0 mi Calm Calm - N/A   Scattered Clouds
5:06 AM 69.8 °F - 66.2 °F 88% 30.05 in 8.0 mi Calm Calm - N/A   Mostly Cloudy
5:56 AM 70.0 °F - 66.9 °F 90% 30.02 in 7.0 mi Calm Calm - N/A   Overcast
6:56 AM 72.0 °F - 68.0 °F 87% 30.03 in 4.0 mi Calm Calm - N/A   Overcast
7:04 AM 71.6 °F - 68.0 °F 88% 30.07 in 7.0 mi SE 3.5 mph - N/A   Mostly Cloudy
7:56 AM 75.0 °F - 69.1 °F 82% 30.05 in 10.0 mi South 5.8 mph - N/A   Mostly Cloudy
8:56 AM 77.0 °F - 66.9 °F 71% 30.06 in 10.0 mi SSW 5.8 mph - N/A   Mostly Cloudy
9:56 AM 80.1 °F 82.3 °F 66.9 °F 64% 30.06 in 10.0 mi South 8.1 mph - N/A   Mostly Cloudy
10:56 AM 80.1 °F 82.3 °F 66.9 °F 64% 30.06 in 10.0 mi South 10.4 mph - N/A   Mostly Cloudy
11:44 AM 82.4 °F 84.6 °F 66.2 °F 58% 30.09 in 10.0 mi SW 11.5 mph - N/A   Mostly Cloudy
11:56 AM 82.0 °F 84.1 °F 66.0 °F 58% 30.05 in 10.0 mi SW 11.5 mph - 0.00 in Rain Light Rain
12:22 PM 82.4 °F 84.6 °F 66.2 °F 58% 30.08 in 10.0 mi SW 12.7 mph - N/A   Mostly Cloudy
12:56 PM 84.0 °F 86.5 °F 66.9 °F 56% 30.03 in 10.0 mi SSW 9.2 mph 17.3 mph N/A   Mostly Cloudy
1:37 PM 84.2 °F 87.3 °F 68.0 °F 58% 30.06 in 10.0 mi South 13.8 mph 19.6 mph N/A   Mostly Cloudy
1:56 PM 84.0 °F 87.0 °F 68.0 °F 58% 30.02 in 10.0 mi South 12.7 mph - N/A   Mostly Cloudy
2:56 PM 84.9 °F 88.8 °F 69.1 °F 59% 30.01 in 10.0 mi South 12.7 mph 20.7 mph N/A   Mostly Cloudy
3:56 PM 82.0 °F 84.9 °F 68.0 °F 62% 30.00 in 10.0 mi South 11.5 mph 18.4 mph N/A   Partly Cloudy
4:56 PM 82.0 °F 84.9 °F 68.0 °F 62% 29.99 in 10.0 mi South 16.1 mph - N/A   Clear
5:56 PM 79.0 °F - 66.9 °F 66% 29.99 in 10.0 mi SSE 15.0 mph - N/A   Clear
6:56 PM 77.0 °F - 66.0 °F 69% 30.00 in 10.0 mi South 13.8 mph - N/A   Clear
7:56 PM 75.0 °F - 66.0 °F 73% 30.01 in 10.0 mi South 6.9 mph - N/A   Clear
8:56 PM 73.0 °F - 66.0 °F 79% 30.01 in 10.0 mi South 6.9 mph - N/A   Clear
9:56 PM 72.0 °F - 64.9 °F 78% 30.02 in 10.0 mi SSW 5.8 mph - N/A   Clear
10:56 PM 72.0 °F - 64.9 °F 78% 30.01 in 10.0 mi South 4.6 mph - N/A   Clear
11:56 PM 71.1 °F - 66.0 °F 84% 30.01 in 10.0 mi South 5.8 mph - N/A   Clear